Lexington Weather

Lexington, Massachusetts, USA

34°F
10/30/2020 6:35am 
  • Lexington Conditions: Light snow, Mist, Overcast
  • Temperature: 34.2°F / 1.2°CColder 1.2°F than last hour.
  • Dew Point: 33.4°FDecreased 1.3°Fsince last hour.
  • Relative Humidity: 97
  • Wind: Wind from NE NE 1 mph, 10-min avg: 2 mph, gust: 4 mph
  • Barometer: 29.76 in Steady
  • Visibility: 5 miles
  • Rain Today: 0.09 in
  •   
Southeast Middlesex County - Winter Weather Advisory
 - SEE ALL NEARBY ALERTS -

Regional Weather Roundup
for Boston / Norton, MA

        
000
ASUS41 KBOX 262304
RWRBOX

REGIONAL WEATHER ROUNDUP
NATIONAL WEATHER SERVICE BOSTON/NORTON MA
700 PM EDT MON OCT 26 2020

NOTE:  "FAIR" INDICATES FEW OR NO CLOUDS BELOW 12,000 FEET WITH NO 
SIGNIFICANT WEATHER AND/OR OBSTRUCTIONS TO VISIBILITY.

MAZALL-270000-
EASTERN MASSACHUSETTS
  
CITY           SKY/WX    TMP DP  RH WIND       PRES   REMARKS
BOSTON         CLOUDY    52  51  97 CALM      30.14R FOG              
BEVERLY        CLOUDY    54  52  93 S5        30.12S FOG              
LAWRENCE       CLOUDY    47  46  97 N3        30.14F FOG              
BEDFORD        FOG       49  48  97 CALM      30.11S VSB 3/4          
BLUE HILL        N/A     50  50 100 NW5       30.12R                  
NORWOOD        CLOUDY    54  51  90 CALM      30.13R                  
MARSHFIELD     CLOUDY    57  55  94 CALM      30.13R                  
PLYMOUTH       CLOUDY    54  52  93 CALM      30.12S                  
TAUNTON        CLOUDY    55  52  89 CALM      30.12F                  
NEW BEDFORD    CLOUDY    55  53  93 NE3       30.12R FOG              
$$

MAZALL-270000-
CAPE COD AND THE ISLANDS
  
CITY           SKY/WX    TMP DP  RH WIND       PRES   REMARKS
FALMOUTH       FOG       54  54 100 NE5       30.12F VSB 1            
HYANNIS        CLOUDY    56  56 100 CALM      30.11S FOG              
CHATHAM        LGT RAIN  57  55  93 E6        30.12F FOG              
PROVINCETOWN   CLOUDY    56  54  93 SE8       30.14R                  
NANTUCKET      CLOUDY    59  56  89 E10       30.09F                  
MARTHAS VNYRD  CLOUDY    57  56  96 E7        30.12R FOG              
$$
 
MAZALL-270000-
CENTRAL AND WESTERN MASSACHUSETTS
  
CITY           SKY/WX    TMP DP  RH WIND       PRES   REMARKS
WORCESTER      FOG       46  45  96 CALM      30.11S VSB 1/4          
FITCHBURG      CLOUDY    46  32  58 CALM      30.14F HAZE             
ORANGE         CLOUDY    47  47 100 CALM      30.13S FOG              
SPRINGFIELD    CLOUDY    46  46 100 CALM      30.11S                  
WESTFIELD      CLOUDY    47  46  97 CALM      30.12S                  
NORTH ADAMS    CLOUDY    49  46  90 E10       30.10R                  
PITTSFIELD     CLOUDY    46  45  96 NE5       30.09R FOG              
$$
 
RIZALL-270000-
RHODE ISLAND
  
CITY           SKY/WX    TMP DP  RH WIND       PRES   REMARKS
PROVIDENCE     CLOUDY    53  52  96 N3        30.13S                  
NEWPORT        CLOUDY    53  53 100 N5        30.12R                  
BLOCK ISLAND   CLOUDY    55  55 100 E8        30.12S                  
SMITHFIELD     CLOUDY    51  51 100 CALM      30.13R                  
WESTERLY       CLOUDY    53  51  93 N5        30.13R                  
$$
 
CTZALL-270000-
CONNECTICUT
  
CITY           SKY/WX    TMP DP  RH WIND       PRES   REMARKS
BRADLEY INTL   CLOUDY    49  45  86 CALM      30.12F                  
HARTFORD       CLOUDY    51  45  79 NE3       30.13R                  
BRIDGEPORT     CLOUDY    57  55  93 E9        30.11S                  
DANBURY        CLOUDY    53  52  96 SE5       30.12S                  
GROTON         CLOUDY    54  52  93 N5        30.12R                  
NEW HAVEN      CLOUDY    56  55  97 N5        30.12S                  
CHESTER        CLOUDY    54  54 100 CALM      30.12S FOG              
MERIDEN        CLOUDY    52  46  80 CALM      30.12S                  
WILLIMANTIC    CLOUDY    53  49  86 CALM      30.12S                  
OXFORD         CLOUDY    51  50  96 E5        30.12F                  
$$

MEZ002-015-021-024-NHZ003-005-008-011-012-014-VTZ005-008-270000-
NORTHERN NEW ENGLAND
  
CITY           SKY/WX    TMP DP  RH WIND       PRES   REMARKS
PORTLAND ME    LGT RAIN  44  44 100 NW6       30.16S FOG              
BANGOR ME      DRIZZLE   42  40  92 N5        30.17F FOG              
CONCORD NH     CLOUDY    44  42  93 N3        30.14F FOG              
MANCHESTER NH  FOG       47  44  90 N3        30.12S VSB 1            
NASHUA NH      CLOUDY    46  46 100 VRB3      30.14F FOG              
PORTSMOUTH NH  LGT RAIN  45  44  99 N3        30.12F VSB 3/4          
JAFFREY NH     CLOUDY    44  42  93 CALM      30.12S FOG              
KEENE NH       LGT RAIN  45  45 100 CALM      30.13R FOG              
BURLINGTON VT  CLOUDY    47  44  90 S8        30.06R                  
MT. WASHINGTON NOT AVBL                                               
$$

NYZ052-076-270000-
EASTERN NEW YORK
  
CITY           SKY/WX    TMP DP  RH WIND       PRES   REMARKS
ALBANY         CLOUDY    47  47 100 SE10      30.08S                  
NEW YORK CITY  LGT RAIN  59  56  89 NE3       30.10F FOG              
$$
 
ANZALL-270000-
MARINE OBSERVATIONS
  
STATION/POSITION TIME  TEMP    WIND        PRES    VSBY  WAVE
                       AIR SEA DIR/SP/G                  HT/PER
                 (UTC) (F)     (DEG/KT/KT) (MB)    (MI)  (FT/S)
BOSTON BUOY      2250   56 56  140/ 10/ 12 1019.1F         4/ 6
BUZZARDS BAY     2200           50/ 10/ 10 1020.8F
NANTUCKET SOUND  2250      61   80/ 10/ 12   N/A           1/ 4
MASS BAY-STELLWA 2204   56 56  150/ 10/ 14 1019.4F  1 7/8  4/ 5
ISLE OF SHOALS   2200   52     160/ 10/ 11 1019.9F
S OF BLOCK IS    2226      62                N/A           5/ 7
$$

......................KEY.........................
  SKY/WX - SKY CONDITION/PRESENT WEATHER
  TMP    - TEMPERATURE IN FAHRENHEIT
  DWPT   - DEWPOINT IN FAHRENHEIT
  RH     - RELATIVE HUMIDITY IN PERCENT
  WIND   - DIRECTION AND SPEED IN MPH
  PRES   - MEAN SEA LEVEL PRESSURE IN INCHES OF HG
  WCI    - WIND CHILL INDEX
  VSB    - VISIBILITY IN MILES
  HX     - HEAT INDEX
  TC     - TEMPERATURE IN CELSIUS
  VRB    - VARIABLE WIND DIRECTION
  N/A    - NOT AVAILABLE
  
      

Other recent Regional Weather Roundups

Fri Oct 30, 6:04am

Fri Oct 30, 5:04am

Fri Oct 30, 4:04am

Fri Oct 30, 3:04am

Fri Oct 30, 2:04am

Fri Oct 30, 1:04am

Fri Oct 30, 12:04am

Thu Oct 29, 11:04pm

Thu Oct 29, 10:04pm

Thu Oct 29, 9:04pm

Thu Oct 29, 8:04pm

Thu Oct 29, 7:04pm

Thu Oct 29, 6:04pm

Thu Oct 29, 5:05pm

Thu Oct 29, 4:05pm

Thu Oct 29, 3:05pm

Thu Oct 29, 2:04pm

Thu Oct 29, 1:04pm

Thu Oct 29, 12:04pm

Thu Oct 29, 11:04am

Thu Oct 29, 10:04am

Thu Oct 29, 9:04am

Thu Oct 29, 8:04am

Thu Oct 29, 7:04am

Thu Oct 29, 6:04am

Thu Oct 29, 5:04am

Thu Oct 29, 4:04am

Thu Oct 29, 3:04am

Thu Oct 29, 2:04am

Thu Oct 29, 1:05am

Thu Oct 29, 12:04am

Wed Oct 28, 11:05pm

Wed Oct 28, 10:04pm

Wed Oct 28, 9:04pm

Wed Oct 28, 8:04pm

Wed Oct 28, 7:05pm

Wed Oct 28, 6:04pm

Wed Oct 28, 5:05pm

Wed Oct 28, 4:04pm

Wed Oct 28, 3:04pm

Wed Oct 28, 2:04pm

Wed Oct 28, 1:05pm

Wed Oct 28, 12:05pm

Wed Oct 28, 11:05am

Wed Oct 28, 10:04am

Wed Oct 28, 9:04am

Wed Oct 28, 8:04am

Wed Oct 28, 7:04am

Wed Oct 28, 6:04am

Wed Oct 28, 5:05am

Wed Oct 28, 4:04am

Wed Oct 28, 3:04am

Wed Oct 28, 2:04am

Wed Oct 28, 1:05am

Wed Oct 28, 12:04am

Tue Oct 27, 11:04pm

Tue Oct 27, 10:04pm

Tue Oct 27, 9:05pm

Tue Oct 27, 8:04pm

Tue Oct 27, 7:04pm

Tue Oct 27, 6:04pm

Tue Oct 27, 5:04pm

Tue Oct 27, 4:05pm

Tue Oct 27, 3:04pm

Tue Oct 27, 2:04pm

Tue Oct 27, 1:04pm

Tue Oct 27, 12:04pm

Tue Oct 27, 11:04am

Tue Oct 27, 10:04am

Tue Oct 27, 9:04am

Tue Oct 27, 8:04am

Tue Oct 27, 7:04am

Tue Oct 27, 6:04am

Tue Oct 27, 5:04am

Tue Oct 27, 4:04am

Tue Oct 27, 3:04am

Tue Oct 27, 2:05am

Tue Oct 27, 1:04am

Tue Oct 27, 12:04am

Mon Oct 26, 11:05pm

Mon Oct 26, 10:04pm

Mon Oct 26, 9:04pm

Mon Oct 26, 8:04pm

Mon Oct 26, 6:04pm

Mon Oct 26, 5:04pm

Mon Oct 26, 4:05pm

Mon Oct 26, 2:04pm

Mon Oct 26, 1:04pm

Mon Oct 26, 12:04pm

Mon Oct 26, 11:05am

Mon Oct 26, 10:04am

Mon Oct 26, 9:04am

Mon Oct 26, 8:04am

Mon Oct 26, 7:04am

Mon Oct 26, 6:04am

Mon Oct 26, 5:04am

Mon Oct 26, 4:04am

Mon Oct 26, 3:04am

Mon Oct 26, 2:04am

Mon Oct 26, 1:04am

Mon Oct 26, 12:04am

Sun Oct 25, 11:05pm

Sun Oct 25, 10:04pm

Sun Oct 25, 9:04pm

Sun Oct 25, 8:04pm

Sun Oct 25, 7:04pm

Sun Oct 25, 6:04pm

Sun Oct 25, 5:04pm

Sun Oct 25, 4:05pm

Sun Oct 25, 3:04pm

Sun Oct 25, 2:04pm

Sun Oct 25, 1:04pm

Sun Oct 25, 12:04pm

Sun Oct 25, 11:04am

Sun Oct 25, 10:04am

Sun Oct 25, 9:04am

Sun Oct 25, 8:04am

Sun Oct 25, 7:04am

Sun Oct 25, 6:04am

Sun Oct 25, 5:04am

Sun Oct 25, 4:04am

Sun Oct 25, 3:04am

Sun Oct 25, 2:04am

Sun Oct 25, 1:05am

Sun Oct 25, 12:04am

Sat Oct 24, 11:04pm

Sat Oct 24, 10:04pm

Sat Oct 24, 9:04pm

Sat Oct 24, 8:04pm

Sat Oct 24, 7:04pm

Sat Oct 24, 6:04pm

Sat Oct 24, 5:05pm

Sat Oct 24, 4:04pm

Sat Oct 24, 3:04pm

Sat Oct 24, 2:04pm

Sat Oct 24, 1:05pm

Sat Oct 24, 12:04pm

Sat Oct 24, 11:05am

Sat Oct 24, 10:05am

Sat Oct 24, 9:04am

Sat Oct 24, 8:04am

Sat Oct 24, 7:04am

Sat Oct 24, 6:04am

Sat Oct 24, 5:04am

Sat Oct 24, 4:04am

Sat Oct 24, 3:04am

Sat Oct 24, 2:04am

Sat Oct 24, 1:05am

Sat Oct 24, 12:04am

Fri Oct 23, 11:04pm

Fri Oct 23, 10:04pm

Fri Oct 23, 9:04pm

Fri Oct 23, 8:05pm

Fri Oct 23, 7:04pm

Fri Oct 23, 6:04pm

Fri Oct 23, 5:05pm

Fri Oct 23, 4:04pm

Fri Oct 23, 3:04pm

Fri Oct 23, 2:05pm

Fri Oct 23, 1:04pm

Fri Oct 23, 12:04pm

Fri Oct 23, 11:04am

Fri Oct 23, 10:04am

Fri Oct 23, 9:04am

Fri Oct 23, 8:04am

Fri Oct 23, 7:04am

Meta data:

ID: 7dfcf8de-658a-46f1-8ee3-6d9513cbf7a3
Link: https://api.weather.gov/products/7dfcf8de-658a-46f1-8ee3-6d9513cbf7a3